Regional Weather Roundup
Issued by NWS

Home | Current Version | Previous Version | Graphics & Text | Print | Product List | Glossary On
Versions: 1 2 3 4 5 6 7 8 9 10 11 12 13 14 15 16 17 18 19 20 21 22 23 24 25 26 27 28 29 30 31 32 33 34 35 36 37 38 39 40 41 42 43 44 45 46 47 48 49 50
000
ASUS43 KLSX 211459
RWRMO

WEATHER SUMMARY FOR MISSOURI
NATIONAL WEATHER SERVICE SPRINGFIELD MO
1000 AM CDT FRI JUL 21 2017

NOTE: "FAIR" INDICATES FEW OR NO CLOUDS BELOW 12,000 FEET WITH NO
       SIGNIFICANT WEATHER AND/OR OBSTRUCTIONS TO VISIBILITY.
       CURRENT SKY AND/OR WEATHER CONDITIONS ARE NOT AVAILABLE FOR
       CHILLICOTHE AND FARMINGTON.

MOZ001>031-035>038-043-044-053-054-211600-
...NORTHERN AND WESTERN MISSOURI...

CITY           SKY/WX    TMP DP  RH WIND       PRES   REMARKS
KANSAS CTY INT MOSUNNY   86  73  65 SW14G22   29.94S HX  93
KANSAS C DTWN  SUNNY     90  73  57 SW14      29.92F HX  98
LEE`S SUMMIT   SUNNY     88  73  61 SW13      29.96S HX  95
ST JOSEPH      SUNNY     85  77  77 S9        29.91S HX  95
CHILLICOTHE      N/A     86  78  77 S7        29.94F HX  98
KIRKSVILLE     SUNNY     86  75  69 SW7       29.97S HX  95

$$
MOZ066>068-077>081-088>096-101>105-211600-
...SOUTHWEST MISSOURI...

CITY           SKY/WX    TMP DP  RH WIND       PRES   REMARKS
SPRINGFIELD    SUNNY     87  73  62 SW15      30.04F HX  94
JOPLIN         SUNNY     89  74  60 SW15      30.02S HX  98
BRANSON        SUNNY     86  73  66 SW5       30.07F HX  93

$$
MOZ032>034-039>042-045>050-055>058-069>072-211600-
...CENTRAL MISSOURI...

CITY           SKY/WX    TMP DP  RH WIND       PRES   REMARKS
COLUMBIA       SUNNY     90  74  59 W9        30.00F HX  99
JEFFERSON CITY SUNNY     88  75  65 VRB5      29.99F HX  97
ROLLA          SUNNY     86  75  69 SW8       30.04S HX  95
WARRENSBURG    SUNNY     86  72  62 S9        29.96S HX  92
OSAGE BEACH    SUNNY     88  73  61 W9        30.02F HX  95

$$
MOZ051-052-059>065-211600-
...EAST CENTRAL MISSOURI...

CITY           SKY/WX    TMP DP  RH WIND       PRES   REMARKS
ST LOUIS INTL  MOSUNNY   94  72  48 CALM      30.00F HX 102
SPIRIT OF STL  SUNNY     89  75  63 SW7       29.99F HX  99
ST CHARLES     SUNNY     89  74  60 W5        29.99S HX  98

$$
MOZ072>076-082>087-097>100-106>115-211600-
...SOUTH CENTRAL AND SOUTHEAST MISSOURI...

CITY           SKY/WX    TMP DP  RH WIND       PRES   REMARKS
CAPE GIRARDEAU SUNNY     88  76  67 W7        30.01F HX  99
POPLAR BLUFF   SUNNY     88  79  74 SW5       30.02F HX 103
WEST PLAINS    SUNNY     89  72  56 W7        30.08F HX  96

$$




USA.gov is the U.S. government's official web portal to all federal, state and local government web resources and services.